Location: Burleson Alternative School
(32.5290°N, 97.3406°W)
Time: 07:49:21
(UTC+00:00)

Tiros 1 despin weight - Pass Details

Date: 15 November 2024
Orbit: 570 x 609 km, 48.2° (Epoch: 05 December)

Event Time Altitude Azimuth Distance (km) Brightness Sun altitude
Exits shadow 10:57:30 13° 11° (NNE) 1,749 ? -25.7°
Drops below altitude 10° 10:58:18 10° 21° (NNE) 1,926 ? -25.6°
Sets 11:01:18 0° 42° (NE) 2,819 ? -24.9°
